Weather observations for the past three days for
Yakima Air Terminal - McAllister Field
Imperial (Metric)
Date Time (pdt) Wind (mph) Vis. (mi.) Weather Sky Cond. Temperature (ºF) Relative Humidity Wind Chill (°F) Heat Index (°F) Pressure Precipitation (in)
Air Dwpt 6 hour altimeter (in) sea level (mb) 1 hr 3 hr 6 hr
Max. Min.
22 12:53 Vrbl 3 10.00 Fair CLR 91 57.9 33% 90 29.84 1009.5
22 11:53 Vrbl 3 10.00 Fair CLR 89.1 57 34% 88 29.86 1010.0
22 10:53 W 7 10.00 Fair CLR 84 55.9 84 71.1 38% 83 29.88 1010.6
22 09:53 N 3 10.00 Fair CLR 81 55.9 42% 81 29.89 1011.2
22 08:53 N 7 10.00 Fair CLR 78.1 55 45% 79 29.91 1011.8
22 07:53 NW 8 10.00 Fair CLR 75 55 50% 78 29.92 1012.1
22 06:53 NW 10 10.00 Fair CLR 73 55 53% 29.91 1011.8
22 05:53 NW 8 10.00 Fair CLR 72 55 55% 29.9 1011.5
22 04:53 NW 15 10.00 Fair CLR 73.9 55 82.9 71.1 52% 29.88 1010.7
22 03:53 N 7 10.00 A Few Clouds FEW070 73 55 53% 29.88 1010.6
22 02:53 NW 7 10.00 Fair CLR 75 55 50% 78 29.88 1010.7
22 01:53 W 6 10.00 Partly Cloudy SCT070 75.9 55.9 50% 78 29.89 1010.9
22 00:53 NW 9 10.00 Overcast OVC070 79 55.9 45% 80 29.89 1011.2
21 23:53 NW 8 10.00 Fair CLR 80.1 55 42% 80 29.9 1011.3
21 22:53 N 8 10.00 Fair CLR 82.9 55 100.9 80.1 38% 82 29.9 1011.3
21 21:53 SW 6 10.00 Fair CLR 82 57 43% 82 29.87 1010.5
21 20:53 W 6 10.00 Fair CLR 82.9 60.1 46% 83 29.85 1009.7
21 19:53 SW 6 10.00 Fair CLR 91 55.9 31% 89 29.83 1009.2
21 18:53 W 6 10.00 Fair CLR 95 57 28% 94 29.83 1008.9
21 17:53 W 6 10.00 Fair CLR 96.1 57 27% 95 29.85 1009.8
21 16:53 Calm 10.00 Fair CLR 99 51.1 100.9 88 20% 96 29.87 1010.5
21 15:53 N 7 10.00 Fair CLR 98.1 48.9 19% 95 29.87 1010.7
21 14:53 SW 10 10.00 Fair CLR 98.1 50 20% 95 29.93 1012.6
21 13:53 SW 10 10.00 A Few Clouds FEW100 93 55.9 29% 91 29.9 1011.5
21 12:53 W 9 10.00 Fair CLR 93.9 53.1 25% 91 29.91 1012.0
21 11:53 NW 3 10.00 Fair CLR 93.9 48.9 21% 91 29.94 1012.9
21 10:53 W 8 10.00 Fair CLR 89.1 54 89.1 59 30% 87 29.96 1013.6
21 09:53 W 7 10.00 Fair CLR 82 54 38% 81 29.95 1013.2
21 08:53 W 8 10.00 Fair CLR 77 51.1 40% 78 29.95 1013.4
21 07:53 W 9 10.00 Fair CLR 73.9 48.9 41% 29.96 1013.6
21 06:53 W 10 10.00 Fair CLR 66 48.9 54% 29.97 1013.7
21 05:53 W 7 10.00 Fair CLR 59 48 67% 29.98 1014.3
21 04:53 W 7 10.00 Fair CLR 60.1 48.9 73 60.1 67% 29.97 1014.1
21 03:53 W 9 10.00 Fair CLR 61 48.9 65% 29.97 1014.0
21 02:53 W 9 10.00 Fair CLR 63 50 63% 29.97 1013.8
21 01:53 W 8 10.00 Fair CLR 62.1 50 65% 29.97 1013.9
21 00:53 W 9 10.00 Fair CLR 69.1 51.1 53% 29.96 1013.7
20 23:53 SW 10 10.00 Fair CLR 72 51.1 48% 29.97 1013.8
20 22:53 W 9 10.00 Fair CLR 71.1 53.1 100 71.1 53% 29.97 1014.1
20 21:53 W 6 10.00 Fair CLR 75.9 57.9 54% 78 29.97 1014.0
20 20:53 Calm 10.00 Fair CLR 82.9 54 37% 82 29.96 1013.6
20 19:53 Calm 10.00 Fair CLR 93 53.1 26% 91 29.96 1013.5
20 18:53 Calm 10.00 Fair CLR 99 45 16% 95 29.96 1013.6
20 17:53 Calm 10.00 Fair CLR 100 45 15% 96 29.97 1014.1
20 16:53 E 5 10.00 Fair CLR 100 46 100.9 87.1 16% 96 29.99 1014.6
20 15:53 Vrbl 6 10.00 Fair CLR 99 45 16% 95 30.01 1015.3
20 14:53 E 3 10.00 Fair CLR 98.1 44.1 16% 94 30.03 1015.8
20 13:53 Vrbl 7 10.00 Fair CLR 96.1 45 17% 92 30.05 1016.5
20 12:53 Vrbl 6 10.00 Fair CLR 93.9 46 19% 90 30.07 1017.1
20 11:53 Calm 10.00 Fair CLR 91 48 23% 88 30.09 1017.8
20 10:53 W 5 10.00 Fair CLR 87.1 48.9 87.1 55 27% 84 30.11 1018.5
20 09:53 W 7 10.00 Fair CLR 81 51.1 35% 80 30.12 1018.9
20 08:53 W 7 10.00 Fair CLR 77 53.1 43% 78 30.13 1019.3
20 07:53 W 7 10.00 Fair CLR 71.1 52 51% 30.13 1019.4
20 06:53 W 8 10.00 Fair CLR 64 50 60% 30.12 1019.3
20 05:53 W 8 10.00 Fair CLR 57 46.9 69% 30.12 1019.3
20 04:53 W 8 10.00 Fair CLR 57.9 48 81 55.9 70% 30.11 1018.7
20 03:53 W 5 10.00 Fair CLR 60.1 50 70% 30.1 1018.4
20 02:53 N 7 10.00 Fair CLR 73 48 41% 30.09 1017.9
20 01:53 NW 8 10.00 Fair CLR 75 48 39% 77 30.08 1017.7
20 00:53 W 5 10.00 Fair CLR 75.9 48.9 39% 78 30.08 1017.6
19 23:53 N 10 10.00 Fair CLR 80.1 48.9 34% 79 30.07 1017.3
19 22:53 N 10 10.00 Fair CLR 81 48.9 98.1 79 33% 80 30.07 1017.1
19 21:53 Vrbl 5 10.00 Fair CLR 82 51.1 34% 81 30.06 1016.7
19 20:53 SW 6 10.00 Fair CLR 82.9 53.1 36% 82 30.03 1015.9
19 19:53 NW 16 10.00 Fair CLR 90 52 27% 87 30.01 1015.3
19 18:53 S 8 10.00 Fair CLR 96.1 39.9 14% 92 30 1014.9
19 17:53 S 10 10.00 Fair CLR 97 37.9 13% 92 30 1015.0
19 16:53 SW 7 G 18 10.00 Fair CLR 97 39 98.1 87.1 13% 92 30.01 1015.3
19 15:53 S 10 10.00 Fair CLR 98.1 41 14% 94 30.02 1015.6
19 14:53 S 10 G 20 10.00 Fair CLR 97 41 14% 93 30.04 1016.1
19 13:53 Vrbl 7 10.00 Fair CLR 95 41 15% 91 30.05 1016.6
Date Time (pdt) Wind (mph) Vis. (mi.) Weather Sky Cond. Air Dwpt Max. Min. Relative Humidity Wind Chill (°F) Heat Index (°F) altimeter (in) sea level (mb) 1 hr 3 hr 6 hr
6 hour
Temperature (ºF) Pressure Precipitation (in)